Austin Bergstrom, TX

2:27 PM CDT on October 22, 2017 (GMT -0500)
Austin Bergstrom International

Weather History for KAUS - February, 2014

Change the Weather History Date:

Sunday, February 16, 2014

  Actual Average Record
Temperature  
Mean Temperature 65 °F 52 °F  
Max Temperature 74 °F 65 °F 83 °F (2006)
Min Temperature 56 °F 40 °F 20 °F (2007)
Degree Days  
Heating Degree Days 0 13  
Month to date heating degree days 286 229  
Since 1 July heating degree days 1729 1471  
Cooling Degree Days 0 0  
Month to date cooling degree days 0 0  
Year to date cooling degree days 1 5  
Growing Degree Days 17 (Base 50)    
Moisture  
Dew Point 58 °F    
Average Humidity 82    
Maximum Humidity 100    
Minimum Humidity 64    
Precipitation  
Precipitation T in 0.08 in 2.23 in (1965)
Month to date precipitation 0.23 1.28  
Year to date precipitation 0.80 3.48  
Snow  
Snow 0.00 in - - ()
Month to date snowfall T  
Since 1 July snowfall T  
Snow Depth 0.00 in    
Sea Level Pressure  
Sea Level Pressure 30.01 in    
Wind  
Wind Speed 8 mph (SSE)    
Max Wind Speed 17 mph    
Max Gust Speed 25 mph    
Visibility 5 miles    
Events      
T = Trace of Precipitation, MM = Missing Value Source: NWS Daily Summary

Daily Weather History Graph

Daily Weather History Graph

Search for Another Location

Airport or City:

Trip Planner

Search our weather history database for the weather conditions in past years. The results will help you decide how hot, cold, wet, or windy it might be!

Date:

Astronomy

Feb. 16, 2014 Rise Set
Actual Time 7:09 AM CST 6:20 PM CST
Civil Twilight 6:45 AM CST 6:44 PM CST
Nautical Twilight 6:17 AM CST 7:12 PM CST
Astronomical Twilight 5:49 AM CST 7:40 PM CST
Moon 8:06 PM CST (2/16) 7:50 AM CST (2/16)
Length of Visible Light 11h 59m
Length of Day
11h 10m
Full, 97% of the Moon is Illuminated
Feb 16
Full
Feb 22
Last Quarter
Mar 1
New
Mar 8
First Quarter
Mar 16
Full

Hourly Weather History & Observations

Time (CST) Temp. Dew Point Humidity Pressure Visibility Wind Dir Wind Speed Gust Speed Precip Events Conditions
12:24 AM 57.2 °F 51.8 °F 82% 30.06 in 10.0 mi SSE 3.5 mph - N/A   Overcast
12:53 AM 57.9 °F 54.0 °F 87% 30.04 in 8.0 mi South 5.8 mph - N/A   Overcast
1:20 AM 57.2 °F 55.4 °F 94% 30.05 in 3.0 mi South 4.6 mph - 0.00 in   Light Drizzle
1:28 AM 57.2 °F 55.4 °F 94% 30.05 in 2.5 mi SSE 4.6 mph - 0.00 in   Light Drizzle
1:53 AM 57.0 °F 55.9 °F 96% 30.04 in 2.5 mi South 3.5 mph - 0.00 in   Light Drizzle
2:53 AM 57.0 °F 55.9 °F 96% 30.02 in 3.0 mi SSE 4.6 mph - 0.00 in   Overcast
3:53 AM 57.0 °F 55.9 °F 96% 30.01 in 6.0 mi SE 3.5 mph - N/A   Overcast
4:53 AM 57.0 °F 55.9 °F 96% 29.99 in 4.0 mi South 5.8 mph - N/A   Overcast
5:14 AM 57.2 °F 55.4 °F 94% 30.01 in 1.0 mi South 4.6 mph - N/A   Overcast
5:53 AM 57.9 °F 57.0 °F 97% 30.01 in 1.0 mi SE 3.5 mph - N/A   Overcast
6:53 AM 57.9 °F 57.0 °F 97% 30.02 in 1.0 mi Calm Calm - 0.00 in   Light Drizzle
7:53 AM 59.0 °F 57.9 °F 96% 30.04 in 1.0 mi Calm Calm - 0.00 in   Light Drizzle
8:03 AM 60.8 °F 57.2 °F 88% 30.05 in 0.5 mi SSE 4.6 mph - 0.00 in   Overcast
8:13 AM 60.8 °F 59.0 °F 94% 30.05 in 0.2 mi SSE 4.6 mph - 0.00 in   Overcast
8:28 AM 60.8 °F 59.0 °F 94% 30.05 in 0.8 mi SSE 5.8 mph - 0.00 in   Overcast
8:36 AM 60.8 °F 59.0 °F 94% 30.05 in 1.2 mi SE 6.9 mph - 0.00 in   Overcast
8:53 AM 60.1 °F 59.0 °F 96% 30.05 in 2.0 mi SSE 6.9 mph - 0.00 in   Overcast
9:32 AM 62.6 °F 60.8 °F 94% 30.07 in 3.0 mi South 8.1 mph - N/A   Overcast
9:53 AM 63.0 °F 60.1 °F 90% 30.07 in 4.0 mi SSE 8.1 mph - N/A   Overcast
10:42 AM 66.2 °F 60.8 °F 83% 30.07 in 5.0 mi South 11.5 mph - N/A   Overcast
10:53 AM 66.0 °F 60.1 °F 81% 30.06 in 6.0 mi South 13.8 mph - N/A   Overcast
11:35 AM 66.2 °F 59.0 °F 78% 30.05 in 7.0 mi South 17.3 mph 24.2 mph N/A   Overcast
11:53 AM 66.9 °F 59.0 °F 76% 30.04 in 8.0 mi South 11.5 mph - N/A   Overcast
12:53 PM 69.1 °F 59.0 °F 70% 30.02 in 9.0 mi South 15.0 mph - N/A   Overcast
1:53 PM 69.1 °F 60.1 °F 73% 29.99 in 8.0 mi South 12.7 mph - N/A   Overcast
2:53 PM 72.0 °F 59.0 °F 64% 29.96 in 9.0 mi South 11.5 mph 20.7 mph N/A   Overcast
3:53 PM 73.0 °F 60.1 °F 64% 29.94 in 9.0 mi South 16.1 mph - N/A   Mostly Cloudy
4:53 PM 72.0 °F 59.0 °F 64% 29.94 in 10.0 mi South 11.5 mph - N/A   Scattered Clouds
5:53 PM 70.0 °F 59.0 °F 68% 29.95 in 8.0 mi South 8.1 mph - N/A   Partly Cloudy
6:53 PM 62.1 °F 55.9 °F 80% 29.96 in 8.0 mi SSE 3.5 mph - N/A   Partly Cloudy
7:53 PM 59.0 °F 55.0 °F 87% 29.96 in 7.0 mi SSE 5.8 mph - N/A   Partly Cloudy
8:53 PM 59.0 °F 55.0 °F 87% 29.96 in 8.0 mi South 4.6 mph - N/A   Partly Cloudy
9:53 PM 60.1 °F 57.0 °F 90% 29.97 in 8.0 mi South 6.9 mph - N/A   Clear
10:53 PM 64.0 °F 61.0 °F 90% 29.96 in 8.0 mi South 10.4 mph - N/A   Mostly Cloudy
11:53 PM 66.0 °F 62.1 °F 87% 29.95 in 8.0 mi South 15.0 mph 25.3 mph N/A   Overcast